Location: Chmeln�
(49.6483°N, 14.9871°E)
Time: 05:43:50
(UTC+00:00)

Lacrosse 5 rocket - Pass Details

Date: 18 September 2020
Orbit: 460 x 636 km, 57.0° (Epoch: 29 October)

Event Time Altitude Azimuth Distance (km) Brightness Sun altitude
Rises 19:47:52 0° 287° (WNW) 2,803 6.1 -25.2°
Reaches altitude 10° 19:50:17 10° 298° (WNW) 1,932 5.1 -25.5°
Maximum altitude 19:54:16 32° 2° (N) 1,070 3.0 -26.0°
Enters shadow 19:55:09 29° 25° (NNE) 1,137 3.0 -26.2°
